Location: Ottawa
(45.4170°N, 75.7000°W)
Time: 02:56:43
(UTC-04:00)

Amateur Radio Satellites - All Passes

Search period start: 02 September 2014 02:26
Search period end: 03 September 2014 02:26
Location: Ottawa, 45.4170°N, 75.7000°W

Satellite Date Start Highest point End Downlink Frequencies (MHz)
Time Altitude Azimuth
PCSat 02 Sep 02:36:02 02:41:05 40° 247° (WSW) 02:46:05 145.825 MHz
Oscar 19 02 Sep 02:37:33 02:42:45 67° 102° (ESE) 02:47:54 437.125 CW, 437.150 USB
OPAL 02 Sep 02:42:33 02:44:02 11° 51° (NE) 02:45:31 ?
AO-Echo 02 Sep 02:46:35 02:50:59 38° 98° (E) 02:55:23 ?
Gurwin Techsat 1B 02 Sep 02:48:00 02:51:37 18° 90° (E) 02:55:14 435.225 FM
Oscar 16 02 Sep 03:12:58 03:18:06 60° 289° (WNW) 03:23:11 437.025 USB, Beacon 2401.1428
ITAMSAT 1 02 Sep 03:15:18 03:20:28 65° 102° (ESE) 03:25:37 435.822 SSB
Oscar 10/S400 02 Sep 03:22:44 04:30:30 33° 232° (SW) 08:35:47 145.825 - 145.975 CW/USB, Beacon 145.810 USB
KITSAT 1 02 Sep 03:24:21 03:29:41 18° 347° (NNW) 03:35:00 435.175 FM
SO-50 02 Sep 03:24:33 03:28:50 47° 119° (ESE) 03:33:15 436.795 FM
Uribyol 2 02 Sep 03:24:37 03:29:51 83° 104° (ESE) 03:35:04 436.500 FM
JAS-1B 02 Sep 03:30:16 03:37:04 74° 103° (ESE) 03:42:56 435.800 - 435.900 CW/SSB
TMSAT-1 02 Sep 03:37:05 03:41:59 37° 97° (E) 03:46:50 436.925 FM
AO-7 02 Sep 03:41:20 03:45:05 14° 85° (E) 03:48:48 29.400 - 29.500 MHz
AO-27 02 Sep 03:45:03 03:50:13 70° 288° (WNW) 03:55:22 436.795 MHz FM
Sapphire 02 Sep 03:53:24 03:54:24 11° 259° (W) 03:55:23 437.095 MHz 1200 baud AX-25 AFSK
OPAL 02 Sep 04:16:54 04:21:56 67° 70° (ENE) 04:27:05 ?
Oscar 19 02 Sep 04:18:00 04:21:35 19° 300° (WNW) 04:25:09 437.125 CW, 437.150 USB
AO-Echo 02 Sep 04:25:46 04:29:36 26° 295° (WNW) 04:33:27 ?
Gurwin Techsat 1B 02 Sep 04:26:47 04:32:03 64° 288° (WNW) 04:37:17 435.225 FM
ITAMSAT 1 02 Sep 04:55:51 04:59:29 20° 300° (WNW) 05:03:06 435.822 SSB
Uribyol 2 02 Sep 05:05:38 05:08:40 16° 303° (WNW) 05:11:42 436.500 FM
SO-50 02 Sep 05:05:44 05:09:37 28° 319° (NW) 05:13:36 436.795 FM
UOSAT-12 02 Sep 05:10:27 05:14:50 45° 119° (ESE) 05:19:20 437.025 FM, 437.400 FM
TMSAT-1 02 Sep 05:17:09 05:21:50 33° 295° (WNW) 05:26:30 436.925 FM
Uosat F 02 Sep 05:17:31 05:22:28 58° 101° (E) 05:27:23 435.120 FM
JAS-1B 02 Sep 05:21:58 05:26:51 21° 307° (NW) 05:31:17 435.800 - 435.900 CW/SSB
KITSAT 1 02 Sep 05:23:04 05:28:43 20° 18° (NNE) 05:34:20 435.175 FM
AO-27 02 Sep 05:27:18 05:28:48 11° 306° (NW) 05:30:18 436.795 MHz FM
AO-7 02 Sep 05:31:06 05:39:24 69° 105° (ESE) 05:47:37 29.400 - 29.500 MHz
Saudisat 1A 02 Sep 05:31:13 05:34:32 20° 37° (NE) 05:37:51 436.775 MHz
OPAL 02 Sep 05:58:02 06:01:19 17° 268° (W) 06:04:38 ?
STRAND 1 02 Sep 06:05:29 06:09:58 33° 66° (ENE) 06:14:29 ?
Gurwin Techsat 1B 02 Sep 06:09:59 06:11:00 11° 307° (NW) 06:12:00 435.225 FM
Hamsat 02 Sep 06:21:53 06:25:40 28° 95° (E) 06:29:24 145.90 MHz
JAS-2 02 Sep 06:27:14 06:31:59 33° 97° (E) 06:37:02 435.800 - 435.900 CW/SSB, 435.910 FM
UOSAT-12 02 Sep 06:51:03 06:55:10 30° 318° (NW) 06:59:20 437.025 FM, 437.400 FM
Uosat F 02 Sep 06:57:13 07:00:51 20° 299° (WNW) 07:04:28 435.120 FM
SO-67 02 Sep 07:06:24 07:06:39 10° 89° (E) 07:06:54 435.3500 MHz FM
Saudisat 1A 02 Sep 07:10:11 07:14:36 71° 237° (WSW) 07:18:58 436.775 MHz
KITSAT 1 02 Sep 07:18:39 07:26:25 47° 45° (NE) 07:34:08 435.175 FM
AO-7 02 Sep 07:24:35 07:31:37 32° 306° (NW) 07:38:39 29.400 - 29.500 MHz
RS-15 02 Sep 07:26:02 07:36:37 54° 114° (ESE) 07:47:03 29.354 - 29.394 USB, Beacon 29.352 USB
STRAND 1 02 Sep 07:44:29 07:49:07 35° 263° (W) 07:53:46 ?
Hamsat 02 Sep 07:57:48 08:01:35 30° 292° (WNW) 08:05:20 145.90 MHz
JAS-2 02 Sep 08:12:24 08:17:08 35° 293° (WNW) 08:22:11 435.800 - 435.900 CW/SSB, 435.910 FM
SO-67 02 Sep 08:36:38 08:40:02 53° 286° (WNW) 08:43:24 435.3500 MHz FM
KITSAT 1 02 Sep 09:14:13 09:21:56 50° 247° (WSW) 09:29:35 435.175 FM
RS-15 02 Sep 09:38:22 09:49:03 54° 319° (NW) 09:59:45 29.354 - 29.394 USB, Beacon 29.352 USB
ISS 02 Sep 09:49:01 09:51:56 29° 140° (SE) 09:54:53 145.800 FM
UKube-1 02 Sep 09:56:14 09:59:59 28° 96° (E) 10:03:43 145.840 MHz, 145.915 MHz
Oscar 11 02 Sep 09:59:45 10:03:07 21° 93° (E) 10:06:26 145.825 FM, Beacon 2401.500 USB
HO-68 02 Sep 10:01:07 10:08:12 59° 102° (ESE) 10:15:14 435.675 MHz FM
SO-50 02 Sep 10:14:09 10:17:23 18° 33° (NNE) 10:20:39 436.795 FM
FUNcube-1 02 Sep 10:32:49 10:36:15 21° 92° (E) 10:39:42 145.950 - 145.970 MHz USB
ISS 02 Sep 11:25:18 11:28:33 51° 338° (NNW) 11:31:49 145.800 FM
UKube-1 02 Sep 11:32:22 11:36:11 31° 293° (WNW) 11:39:59 145.840 MHz, 145.915 MHz
Oscar 11 02 Sep 11:35:21 11:39:27 40° 290° (WNW) 11:43:31 145.825 FM, Beacon 2401.500 USB
HO-68 02 Sep 11:49:24 11:55:31 32° 302° (WNW) 12:01:38 435.675 MHz FM
SO-50 02 Sep 11:53:54 11:58:42 80° 54° (NE) 12:03:33 436.795 FM
RS-15 02 Sep 11:55:30 12:04:35 28° 351° (N) 12:13:45 29.354 - 29.394 USB, Beacon 29.352 USB
UOSAT-12 02 Sep 11:58:37 12:01:40 17° 31° (NNE) 12:04:42 437.025 FM, 437.400 FM
FUNcube-1 02 Sep 12:08:30 12:12:50 45° 289° (WNW) 12:17:13 145.950 - 145.970 MHz USB
Oscar 19 02 Sep 12:19:37 12:23:02 18° 59° (ENE) 12:26:28 437.125 CW, 437.150 USB
JAS-1B 02 Sep 12:27:19 12:33:54 23° 54° (NE) 12:39:54 435.800 - 435.900 CW/SSB
Oscar 16 02 Sep 12:53:28 12:58:06 35° 66° (ENE) 13:02:46 437.025 USB, Beacon 2401.1428
MaSat-1 02 Sep 12:56:31 13:01:23 59° 113° (ESE) 13:06:29 437.345 MHz
ITAMSAT 1 02 Sep 12:58:22 13:01:50 19° 59° (ENE) 13:05:18 435.822 SSB
ISS 02 Sep 13:02:52 13:05:46 27° 358° (N) 13:08:41 145.800 FM
Uribyol 2 02 Sep 13:06:59 13:10:56 23° 61° (ENE) 13:14:53 436.500 FM
TMSAT-1 02 Sep 13:24:35 13:26:13 11° 54° (NE) 13:27:51 436.925 FM
AO-27 02 Sep 13:26:51 13:31:23 32° 65° (ENE) 13:35:55 436.795 MHz FM
SO-50 02 Sep 13:36:01 13:38:41 15° 251° (WSW) 13:41:21 436.795 FM
UOSAT-12 02 Sep 13:37:54 13:42:40 73° 52° (NE) 13:47:20 437.025 FM, 437.400 FM
Oscar 19 02 Sep 13:56:39 14:01:49 71° 257° (WSW) 14:07:01 437.125 CW, 437.150 USB
AO-Echo 02 Sep 14:01:28 14:06:24 66° 73° (ENE) 14:11:12 ?
Gurwin Techsat 1B 02 Sep 14:10:53 14:15:40 36° 66° (ENE) 14:20:29 435.225 FM
RS-15 02 Sep 14:11:18 14:21:09 35° 26° (NNE) 14:31:12 29.354 - 29.394 USB, Beacon 29.352 USB
JAS-1B 02 Sep 14:13:44 14:23:25 79° 72° (ENE) 14:31:53 435.800 - 435.900 CW/SSB
Oscar 16 02 Sep 14:32:48 14:37:26 33° 264° (W) 14:42:07 437.025 USB, Beacon 2401.1428
MaSat-1 02 Sep 14:34:37 14:38:47 25° 313° (NW) 14:43:01 437.345 MHz
ITAMSAT 1 02 Sep 14:35:39 14:40:48 69° 257° (WSW) 14:45:58 435.822 SSB
ISS 02 Sep 14:39:53 14:43:04 40° 18° (NNE) 14:46:14 145.800 FM
AO-7 02 Sep 14:41:49 14:48:33 29° 52° (NE) 14:55:16 29.400 - 29.500 MHz
Uribyol 2 02 Sep 14:45:01 14:50:03 54° 260° (W) 14:55:07 436.500 FM
Uosat F 02 Sep 14:57:02 14:59:49 15° 58° (ENE) 15:02:36 435.120 FM
TMSAT-1 02 Sep 14:59:56 15:05:11 70° 73° (ENE) 15:10:28 436.925 FM
AO-27 02 Sep 15:06:03 15:10:48 37° 263° (W) 15:15:36 436.795 MHz FM
UOSAT-12 02 Sep 15:19:24 15:22:15 16° 250° (WSW) 15:25:03 437.025 FM, 437.400 FM
PCSat 02 Sep 15:38:10 15:41:52 19° 106° (ESE) 15:45:35 145.825 MHz
AO-Echo 02 Sep 15:42:37 15:45:36 16° 270° (W) 15:48:33 ?
Gurwin Techsat 1B 02 Sep 15:50:53 15:55:39 33° 264° (W) 16:00:26 435.225 FM
JAS-1B 02 Sep 16:06:38 16:14:27 28° 269° (W) 16:21:38 435.800 - 435.900 CW/SSB
ISS 02 Sep 16:16:39 16:19:51 45° 216° (SW) 16:23:02 145.800 FM
RS-15 02 Sep 16:24:10 16:35:18 84° 54° (NE) 16:46:50 29.354 - 29.394 USB, Beacon 29.352 USB
OPAL 02 Sep 16:26:16 16:29:04 14° 91° (E) 16:31:51 ?
AO-7 02 Sep 16:32:13 16:40:34 79° 253° (WSW) 16:48:57 29.400 - 29.500 MHz
Uosat F 02 Sep 16:32:56 16:37:57 82° 256° (WSW) 16:43:00 435.120 FM
TMSAT-1 02 Sep 16:42:18 16:45:38 17° 271° (W) 16:48:59 436.925 FM
JAS-2 02 Sep 16:43:34 16:47:29 19° 61° (ENE) 16:51:13 435.800 - 435.900 CW/SSB, 435.910 FM
Sapphire 02 Sep 16:50:11 16:55:32 68° 118° (ESE) 17:00:56 437.095 MHz 1200 baud AX-25 AFSK
Hamsat 02 Sep 17:17:22 17:21:03 28° 67° (ENE) 17:24:46 145.90 MHz
PCSat 02 Sep 17:19:19 17:24:43 70° 304° (NW) 17:30:09 145.825 MHz
OPAL 02 Sep 18:03:18 18:08:33 80° 288° (WNW) 18:13:45 ?
Uosat F 02 Sep 18:17:05 18:17:31 10° 273° (W) 18:17:57 435.120 FM
JAS-2 02 Sep 18:26:15 18:32:12 69° 257° (WSW) 18:37:36 435.800 - 435.900 CW/SSB, 435.910 FM
AO-7 02 Sep 18:29:41 18:34:39 17° 273° (W) 18:39:38 29.400 - 29.500 MHz
Sapphire 02 Sep 18:35:02 18:39:27 25° 319° (NW) 18:43:54 437.095 MHz 1200 baud AX-25 AFSK
RS-15 02 Sep 18:37:33 18:46:28 29° 256° (WSW) 18:55:42 29.354 - 29.394 USB, Beacon 29.352 USB
HO-68 02 Sep 18:49:23 18:52:23 13° 45° (NE) 18:55:23 435.675 MHz FM
Hamsat 02 Sep 18:53:05 18:56:56 31° 265° (W) 19:00:49 145.90 MHz
PCSat 02 Sep 19:05:42 19:09:09 17° 326° (NW) 19:12:37 145.825 MHz
SO-67 02 Sep 19:11:22 19:14:48 66° 75° (ENE) 19:18:16 435.3500 MHz FM
OPAL 02 Sep 19:44:06 19:46:36 14° 307° (NW) 19:49:07 ?
STRAND 1 02 Sep 19:52:11 19:57:17 67° 102° (ESE) 20:02:22 ?
HO-68 02 Sep 20:31:41 20:38:36 56° 66° (ENE) 20:45:32 435.675 MHz FM
UKube-1 02 Sep 20:53:50 20:57:42 33° 67° (ENE) 21:01:35 145.840 MHz, 145.915 MHz
Oscar 11 02 Sep 20:57:05 21:00:29 23° 65° (ENE) 21:03:55 145.825 FM, Beacon 2401.500 USB
MaSat-1 02 Sep 21:12:28 21:16:21 25° 48° (NE) 21:19:51 437.345 MHz
Saudisat 1A 02 Sep 21:20:02 21:22:56 17° 111° (ESE) 21:25:51 436.775 MHz
FUNcube-1 02 Sep 21:31:55 21:35:04 21° 64° (ENE) 21:38:18 145.950 - 145.970 MHz USB
STRAND 1 02 Sep 21:32:31 21:35:58 19° 300° (WNW) 21:39:24 ?
KITSAT 1 02 Sep 21:52:09 21:57:33 20° 102° (ESE) 22:02:56 435.175 FM
HO-68 02 Sep 22:20:24 22:26:36 32° 265° (W) 22:32:52 435.675 MHz FM
UKube-1 02 Sep 22:30:18 22:33:56 26° 265° (W) 22:37:36 145.840 MHz, 145.915 MHz
Oscar 11 02 Sep 22:32:25 22:36:28 38° 263° (W) 22:40:34 145.825 FM, Beacon 2401.500 USB
MaSat-1 02 Sep 22:49:18 22:53:33 40° 250° (WSW) 22:57:14 437.345 MHz
Saudisat 1A 02 Sep 22:57:43 23:02:05 61° 309° (NW) 23:06:28 436.775 MHz
FUNcube-1 02 Sep 23:07:15 23:11:13 40° 262° (W) 23:15:18 145.950 - 145.970 MHz USB
KITSAT 1 02 Sep 23:43:42 23:51:49 86° 122° (ESE) 23:59:57 435.175 FM
Sapphire 02 Sep 23:53:24 23:57:17 19° 37° (NE) 00:01:08 437.095 MHz 1200 baud AX-25 AFSK
PCSat 03 Sep 00:22:10 00:26:53 29° 44° (NE) 00:31:35 145.825 MHz
Saudisat 1A 03 Sep 00:40:19 00:42:34 14° 330° (NNW) 00:44:50 436.775 MHz
Sapphire 03 Sep 01:36:03 01:41:32 85° 58° (ENE) 01:46:58 437.095 MHz 1200 baud AX-25 AFSK
KITSAT 1 03 Sep 01:41:12 01:48:13 31° 325° (NW) 01:55:15 435.175 FM
JAS-1B 03 Sep 02:00:39 02:04:15 15° 84° (E) 02:07:37 435.800 - 435.900 CW/SSB
PCSat 03 Sep 02:05:19 02:10:37 54° 244° (WSW) 02:15:52 145.825 MHz
Oscar 19 03 Sep 02:06:18 02:11:04 35° 96° (E) 02:15:47 437.125 CW, 437.150 USB
AO-Echo 03 Sep 02:07:35 02:10:33 16° 91° (E) 02:13:32 ?
SO-50 03 Sep 02:13:11 02:15:37 15° 109° (ESE) 02:18:05 436.795 FM
